Volver al catálogo

STARLINK-3115

ActivoComunicacionesVLEO
NORAD 49447·PAYLOAD·🇺🇸 United States

Lanzado Nov 13, 2021 desde Cape Canaveral Space Force Station

Loading…

Próximos Pases (próximas 24 horas)

TLE

ActualizadoSource: CelesTrak SupGP

Época: Sep 14, 2026, 19:44 UTC

1 49447C 21104AR  26257.82270833 -.00038020  00000+0 -12228-2 0  2579
2 49447  53.1571  78.2679 0001377  86.9100   4.1395 15.31715633    11

Sigue STARLINK-3115 en tiempo real con AllMySat

Download on the App Store